Flag for Canada Weather past 2 weeks in Qikiqtarjuaq, Nunavut Territory, Canada

Now
-15 °F

Passing clouds.


Feels Like: -34 °F
Forecast: -17 / -13 °F
Wind: 9 mph from Southwest

Location: Broughton Island Airport

Current Time: Dec 21, 2014 at 9:56:26 AM

Latest Report: Dec 21, 2014 at 9:00 AM


Visibility: 15 mi

Pressure: 29.97 "Hg

Humidity: 69%

Dew point: -22 °F

Location of QikiqtarjuaqLocation

Historic Weather in Qikiqtarjuaq — Graph

°F

Qikiqtarjuaq temperature yesterday

Maximum temperature yesterday: -15 °F (at 4:00 AM)
Minimum temperature yesterday: -20 °F (at 3:00 AM)
Average temperature yesterday: -18 °F

Past Weeks' High & Low Weather Summary

 TemperatureHumidityPressure
High14 °F (Dec 13, 1:00 AM)92% (Dec 11, 3:53 AM)30.27 "Hg (Dec 11, 3:53 AM)
Low-20 °F (Dec 20, 3:00 AM)26% (Dec 13, 1:00 AM)29.39 "Hg (Dec 11, 10:00 PM)
Average-3 °F74%29.83 "Hg
* Reported Dec 6 8:00 AM — Dec 21 8:00 AM, Qikiqtarjuaq, Weather by CustomWeather, © 2014

Note: Actual official high and low records may vary slightly from our data, if they occured in-between our weather recording intervals... More about our weather records

Advertising

Qikiqtarjuaq weather history for previous 24 hours

 ConditionsComfort  
Time TempWeatherWind HumidityBarometerVisibility
8:00 AM
Dec 21
-11 °FSunny.8 mph58%29.97 "Hg15 mi
7:00 AM-15 °FSunny.10 mph69%29.96 "Hg15 mi
6:00 AM-17 °FSunny.7 mph63%29.97 "Hg9 mi
5:00 AM-17 °FSunny.7 mph69%29.96 "Hg9 mi
4:00 AM-15 °FClear.10 mph63%29.96 "Hg9 mi
3:00 AM-17 °FClear.6 mph63%29.95 "Hg9 mi
2:00 AM-15 °FClear.2 mph63%29.94 "Hg9 mi
1:00 AM-20 °FClear.8 mph68%29.93 "Hg9 mi
12:00 AM-17 °FClear.5 mph69%29.93 "Hg9 mi
11:00 PM
Dec 20
-15 °FSunny.9 mph63%29.94 "Hg9 mi
10:00 PM-17 °FClear.2 mph63%29.94 "Hg9 mi
9:00 PM-18 °FClear.7 mph69%29.94 "Hg9 mi
8:00 PM-17 °FClear.10 mph63%29.95 "Hg9 mi
7:00 PM-15 °FClear.2 mph63%29.96 "Hg9 mi
6:00 PM-18 °FClear.2 mph69%29.96 "Hg9 mi
5:00 PM-17 °FSunny.5 mph69%29.96 "Hg15 mi
4:00 PM-15 °FSunny.8 mph69%29.97 "Hg15 mi
3:00 PM-15 °FSunny.6 mph69%29.97 "Hg15 mi
2:00 PM-17 °FSunny.10 mph69%29.96 "Hg15 mi
1:00 PM-17 °FSunny.7 mph76%29.96 "Hg15 mi
12:00 PM-20 °FSunny.6 mph75%29.97 "Hg15 mi
11:00 AM-20 °FSunny.No wind75%29.97 "Hg15 mi
10:00 AM-18 °FSunny.3 mph75%29.98 "Hg15 mi
9:00 AM-20 °FSunny.2 mph75%29.98 "Hg15 mi
Weather by CustomWeather, © 2014

See weather overviewHow to use our weather pages